Home   Weather   Buenaventura   Past weeks

Flag for Colombia Past Weather in Buenaventura, Colombia — Yesterday and Last 2 Weeks

Now
68 °F

Passing clouds.


Feels Like: 68 °F
Forecast: 76 / 86 °F
Wind: 3 mph from Northeast

Location: Cali / Alfonso Bonillaaragon

Current Time: Sep 27, 2016 at 5:31:50 AM

Latest Report: Sep 27, 2016 at 5:00 AM


Visibility: N/A

Pressure: 29.97 "Hg

Humidity: 94%

Dew Point: 66 °F

Location of BuenaventuraLocation

Past Weather in Buenaventura — Graph

°F

Buenaventura Temperature Yesterday

Maximum temperature yesterday: 88 °F (at 1:00 PM)
Minimum temperature yesterday: 68 °F (at 12:00 AM)
Average temperature yesterday: 76 °F

High & Low Weather Summary for the Past Weeks

 TemperatureHumidityPressure
High91 °F (Sep 20, 2:00 PM)100% (Sep 12, 4:00 AM)30.14 "Hg (Sep 12, 4:00 AM)
Low63 °F (Sep 16, 6:00 AM)33% (Sep 16, 5:00 PM)29.81 "Hg (Sep 20, 4:00 PM)
Average75 °F76%29.98 "Hg
* Reported Sep 12 4:00 AM — Sep 27 4:00 AM, Buenaventura, Weather by CustomWeather, © 2016

Note: Actual official high and low records may vary slightly from our data, if they occured in-between our weather recording intervals... More about our weather records

Advertising

Buenaventura Weather History for the Previous 24 Hours

Scroll right to see more
 ConditionsComfort  
Time TempWeatherWind HumidityBarometerVisibility
4:00 AM
Tue, Sep 27
68 °FPassing clouds.3 mph94%29.95 "HgN/A
3:00 AM68 °FPassing clouds.No wind94%29.97 "HgN/A
2:00 AM68 °FPassing clouds.No wind94%29.96 "HgN/A
1:00 AM68 °FPassing clouds.5 mph94%29.98 "HgN/A
12:00 AM70 °FPassing clouds.N/A83%30.00 "HgN/A
11:00 PM
Mon, Sep 26
70 °FPassing clouds.6 mph83%30.00 "HgN/A
10:00 PM72 °FPassing clouds.7 mph83%30.00 "HgN/A
9:00 PM75 °FPassing clouds.12 mph69%29.97 "HgN/A
8:00 PM75 °FPassing clouds.9 mph69%29.94 "HgN/A
7:00 PM75 °FPassing clouds.7 mph74%29.92 "HgN/A
6:00 PM77 °FScattered showers. Overcast.13 mph69%29.88 "Hg6 mi
5:00 PM79 °FScattered showers. Broken clouds.12 mph61%29.87 "HgN/A
4:00 PM81 °FScattered showers. Broken clouds.14 mph58%29.84 "HgN/A
3:00 PM84 °FScattered clouds.9 mph55%29.84 "Hg6 mi
2:00 PM86 °FScattered clouds.6 mph52%29.86 "HgN/A
1:00 PM88 °FBroken clouds.5 mph49%29.90 "HgN/A
12:00 PM86 °FBroken clouds.5 mph49%29.95 "HgN/A
11:00 AM81 °FScattered clouds.5 mph62%29.99 "HgN/A
10:00 AM82 °FScattered clouds.3 mph58%30.00 "HgN/A
9:00 AM77 °FPartly sunny.3 mph69%30.04 "HgN/A
8:00 AM73 °FPartly sunny.3 mph78%30.04 "HgN/A
7:00 AM70 °FPartly sunny.3 mph88%30.02 "HgN/A
6:00 AM68 °FPartly sunny.2 mph94%30.00 "HgN/A
5:00 AM68 °FPartly cloudy.5 mph94%29.98 "HgN/A
Weather by CustomWeather, © 2016

See weather overviewHow to use our weather pages